Weather reports worldwide

Advertisment
Springfield, vt, United States of America (2074072): temperature & dewpoint: 19.05.2019 02:00:00 - 25.05.2019 02:00:00 (EDT)Springfield, vt, United States of America (2074072): wind speed & gusts: 19.05.2019 02:00:00 - 25.05.2019 02:00:00 (EDT)Springfield, vt, United States of America (2074072): wind direction: 19.05.2019 02:00:00 - 25.05.2019 02:00:00 (EDT)Springfield, vt, United States of America (2074072): reduced air pressure: 19.05.2019 02:00:00 - 25.05.2019 02:00:00 (EDT)Springfield, vt, United States of America (2074072): visibility: 19.05.2019 02:00:00 - 25.05.2019 02:00:00 (EDT)Springfield, vt, United States of America (2074072): precipitation: 19.05.2019 02:00:00 - 25.05.2019 02:00:00 (EDT)
Date & Time tt [°C] td [°C] ff [km/h] ff [kn] fx [km/h] fx [kn] dd ppp [hPa] vv [km] rr [mm]
25.05.2019 02:00:00 7,8 6,7 0 0 - - N 1021,7 16 -
25.05.2019 01:00:00 8,3 7,2 0 0 - - N 1021,1 16 -
25.05.2019 00:00:00 9,4 7,8 0 0 - - N 1021,1 16 -
24.05.2019 23:00:00 10,6 8,3 8 4 - - N 1020,7 16 -
24.05.2019 22:00:00 13,9 8,3 0 0 - - N 1020,3 16 -
24.05.2019 21:00:00 15,0 7,8 0 0 - - N 1019,9 16 -
24.05.2019 20:00:00 15,6 7,8 8 4 - - N 1019,3 16 -
24.05.2019 19:00:00 15,6 7,8 9 5 - - NNE 1018,4 16 -
24.05.2019 18:00:00 16,1 7,8 15 8 - - N 1017,4 16 -
24.05.2019 17:00:00 16,7 8,3 9 5 - - NNE 1016,4 16 -
24.05.2019 16:00:00 17,8 8,3 15 8 - - N 1015,0 16 -
24.05.2019 15:00:00 17,8 8,3 13 7 - - N 1014,0 16 -
24.05.2019 14:00:00 18,3 7,8 - - - - - 1012,5 16 -
24.05.2019 13:00:00 18,3 7,8 15 8 - - N 1011,3 16 -
24.05.2019 12:00:00 18,9 7,8 16 9 50 27 N 1010,6 16 -
24.05.2019 11:00:00 17,8 8,3 22 12 54 29 NNW 1010,1 16 -
24.05.2019 10:00:00 17,2 8,9 28 15 - - NW 1008,8 16 -
24.05.2019 09:00:00 16,1 9,4 22 12 63 34 NW 1008,0 16 0,0
24.05.2019 08:00:00 14,4 11,1 13 7 - - WNW 1006,7 16 0,0
24.05.2019 07:00:00 15,6 10,6 22 12 - - W 1005,3 16 0,0
24.05.2019 06:00:00 15,0 10,0 9 5 - - WNW 1005,1 16 -
24.05.2019 05:00:00 15,0 10,0 13 7 - - WNW 1003,9 16 -
24.05.2019 04:00:00 11,7 10,6 0 0 - - N 1004,2 16 -
24.05.2019 03:00:00 12,2 10,6 0 0 - - N 1004,4 15 -
24.05.2019 02:00:00 11,7 11,1 0 0 - - N 1004,5 4,8 -
24.05.2019 01:00:00 15,0 11,7 8 4 - - W 1005,3 16 -
24.05.2019 00:00:00 12,8 12,2 5 3 - - WNW 1006,2 10 -
23.05.2019 23:00:00 13,9 12,8 5 3 - - SSW 1006,5 16 3,0
23.05.2019 22:00:00 13,9 13,3 5 3 - - SW 1008,2 4,8 1,5
23.05.2019 21:00:00 14,4 12,2 0 0 - - N 1007,9 15 0,0
23.05.2019 20:00:00 15,0 12,2 8 4 - - - 1009,3 16 0,3
23.05.2019 19:00:00 15,6 12,8 15 8 - - S 1010,4 10 0,5
23.05.2019 18:00:00 16,7 13,9 8 4 - - SE 1011,4 10 0,5
23.05.2019 17:00:00 17,8 13,3 8 4 - - S 1013,0 16 0,0
23.05.2019 16:00:00 19,4 12,2 24 13 - - SE 1012,6 16 0,0
23.05.2019 15:00:00 21,1 11,7 13 7 - - S 1014,2 16 -
23.05.2019 14:00:00 21,7 11,7 21 11 - - SE 1014,6 16 -
23.05.2019 13:00:00 21,7 10,6 15 8 - - SSE 1015,8 16 -
23.05.2019 12:00:00 20,0 10,0 11 6 - - SE 1016,8 16 -
23.05.2019 11:00:00 17,8 9,4 13 7 - - SE 1018,4 16 -
23.05.2019 10:00:00 15,6 8,9 13 7 - - ESE 1019,7 16 -
23.05.2019 09:00:00 13,3 7,8 0 0 - - N 1020,7 16 -
23.05.2019 08:00:00 12,2 7,8 8 4 - - - 1021,0 16 -
23.05.2019 07:00:00 11,1 7,2 0 0 - - N 1021,8 16 -
23.05.2019 06:00:00 9,4 7,8 0 0 - - N 1022,3 16 -
23.05.2019 05:00:00 11,1 8,3 0 0 - - N 1022,3 16 -
23.05.2019 04:00:00 11,1 7,8 0 0 - - N 1022,3 16 -
23.05.2019 03:00:00 10,6 7,2 0 0 - - N 1022,6 16 -
23.05.2019 02:00:00 10,6 7,8 5 3 - - ENE 1023,3 16 -
23.05.2019 01:00:00 11,1 7,2 0 0 - - N 1022,8 16 0,0
23.05.2019 00:00:00 11,1 7,2 0 0 - - N 1023,2 16 -
22.05.2019 23:00:00 12,8 7,2 0 0 - - N 1022,7 16 -
22.05.2019 22:00:00 13,3 7,2 8 4 - - SSE 1022,7 16 -
22.05.2019 21:00:00 15,0 6,1 0 0 - - N 1023,0 16 -
22.05.2019 20:00:00 17,2 3,3 8 4 - - W 1023,3 16 -
22.05.2019 19:00:00 18,3 3,3 0 0 - - N 1023,0 16 -
22.05.2019 18:00:00 20,0 3,3 13 7 - - W 1022,9 16 -
22.05.2019 17:00:00 20,6 2,2 13 7 - - NNW 1022,8 16 -
22.05.2019 16:00:00 20,6 -0,6 13 7 - - NNW 1022,5 16 -
22.05.2019 15:00:00 20,0 -1,1 - - - - - 1022,7 16 -
22.05.2019 14:00:00 19,4 -1,1 16 9 - - NNE 1022,5 16 -
22.05.2019 13:00:00 18,9 -0,6 15 8 - - NNE 1022,8 16 -
22.05.2019 12:00:00 17,2 -2,2 22 12 - - N 1023,1 16 -
22.05.2019 11:00:00 16,7 0,0 13 7 - - NNE 1023,4 16 -
22.05.2019 10:00:00 13,9 -0,6 13 7 - - N 1023,5 16 -
22.05.2019 09:00:00 12,8 0,0 16 9 - - N 1023,5 16 -
22.05.2019 08:00:00 12,2 0,6 11 6 - - NNE 1022,9 16 -
22.05.2019 07:00:00 11,1 0,6 0 0 - - N 1022,0 16 -
22.05.2019 06:00:00 10,6 0,0 9 5 - - N 1021,1 16 -
22.05.2019 05:00:00 11,1 0,6 11 6 - - NW 1019,9 16 -
22.05.2019 04:00:00 11,7 1,7 - - - - - 1019,0 16 -
22.05.2019 03:00:00 11,7 1,7 11 6 - - - 1018,3 16 -
22.05.2019 02:00:00 12,2 1,1 13 7 - - NW 1017,6 16 -
22.05.2019 01:00:00 12,8 0,6 13 7 - - NW 1017,0 16 -
22.05.2019 00:00:00 12,8 1,1 13 7 - - NNW 1017,1 16 -
21.05.2019 23:00:00 13,3 0,6 24 13 48 26 NW 1016,7 16 -
21.05.2019 22:00:00 13,3 0,0 26 14 - - NW 1016,4 16 -
21.05.2019 21:00:00 13,9 -0,6 21 11 - - NW 1015,6 16 -
21.05.2019 20:00:00 14,4 -0,6 16 9 54 29 NW 1014,6 16 -
21.05.2019 19:00:00 15,6 -1,1 34 18 52 28 WNW 1013,7 16 -
21.05.2019 18:00:00 15,6 0,0 16 9 48 26 WNW 1012,9 16 -
21.05.2019 17:00:00 16,7 0,6 22 12 48 26 NW 1012,2 16 -
21.05.2019 16:00:00 15,6 1,7 15 8 - - WNW 1011,6 16 -
21.05.2019 15:00:00 13,9 2,2 18 10 48 26 NW 1011,3 16 -
21.05.2019 14:00:00 13,9 1,7 31 17 50 27 WNW 1011,3 16 0,0
21.05.2019 13:00:00 15,0 1,7 26 14 61 33 WNW 1010,6 16 -
21.05.2019 12:00:00 14,4 1,1 37 20 57 31 WNW 1010,4 16 -
21.05.2019 11:00:00 12,8 1,1 34 18 48 26 W 1010,4 16 -
21.05.2019 10:00:00 12,8 1,7 21 11 52 28 WNW 1009,9 16 -
21.05.2019 09:00:00 11,7 1,7 13 7 55 30 W 1009,9 16 -
21.05.2019 08:00:00 10,6 1,7 28 15 55 30 W 1010,0 16 -
21.05.2019 07:00:00 10,6 2,8 15 8 52 28 WNW 1009,2 16 -
21.05.2019 06:00:00 11,1 3,3 18 10 - - WNW 1008,4 16 -
21.05.2019 05:00:00 11,7 3,9 11 6 - - WNW 1008,1 16 -
21.05.2019 04:00:00 12,2 4,4 13 7 - - W 1007,5 16 -
21.05.2019 03:00:00 12,8 5,0 13 7 - - W 1007,5 16 -
21.05.2019 02:00:00 13,3 4,4 9 5 - - SW 1007,6 16 -
21.05.2019 01:00:00 13,9 5,0 21 11 48 26 W 1007,5 16 -
21.05.2019 00:00:00 16,1 6,1 22 12 - - W 1007,7 16 -
20.05.2019 23:00:00 17,2 7,2 24 13 - - WNW 1007,6 16 -
20.05.2019 22:00:00 18,9 8,9 22 12 48 26 W 1006,6 16 -
20.05.2019 21:00:00 21,1 11,1 22 12 - - W 1005,5 16 -
20.05.2019 20:00:00 22,8 11,7 22 12 - - W 1004,5 16 -
20.05.2019 19:00:00 23,9 13,9 16 9 - - W 1003,8 16 -
20.05.2019 18:00:00 24,4 13,9 16 9 - - SW 1003,3 16 -
20.05.2019 17:00:00 23,9 15,6 9 5 - - SW 1003,9 16 -
20.05.2019 16:00:00 25,0 16,7 13 7 - - WNW 1004,1 16 -
20.05.2019 15:00:00 24,4 13,9 15 8 - - WSW 1004,1 16 -
20.05.2019 14:00:00 23,9 15,0 15 8 - - SSW 1004,7 16 -
20.05.2019 13:00:00 24,4 15,6 24 13 - - WSW 1005,8 16 -
20.05.2019 12:00:00 23,9 16,7 18 10 - - WSW 1006,4 16 -
20.05.2019 11:00:00 21,7 17,2 13 7 - - SSW 1006,3 16 0,0
20.05.2019 10:00:00 21,1 17,2 11 6 - - SSW 1007,2 16 -
20.05.2019 09:00:00 18,9 17,2 9 5 - - SSW 1007,5 16 -
20.05.2019 08:00:00 17,8 17,2 5 3 - - SW 1008,1 8 0,8
20.05.2019 07:00:00 17,8 16,7 0 0 - - N 1008,4 6 0,5
20.05.2019 06:00:00 18,9 17,2 0 0 - - N 1008,5 8 0,0
20.05.2019 05:00:00 18,3 17,2 0 0 - - N 1007,2 13 -
20.05.2019 04:00:00 18,3 17,2 0 0 - - N 1008,3 13 -
20.05.2019 03:00:00 18,9 17,8 5 3 - - SE 1008,5 13 -
20.05.2019 02:00:00 18,9 17,8 5 3 - - SE 1008,8 10 -
20.05.2019 01:00:00 18,3 17,2 5 3 - - N 1009,7 11 -
20.05.2019 00:00:00 17,8 17,2 0 0 - - N 1010,5 16 -
19.05.2019 23:00:00 17,2 16,7 0 0 - - N 1011,5 13 0,0
19.05.2019 22:00:00 17,2 16,7 0 0 - - N 1012,5 16 0,0
19.05.2019 21:00:00 17,2 16,7 0 0 - - N 1012,2 16 6,1
19.05.2019 20:00:00 17,2 16,7 8 4 50 27 SSE 1013,0 3,2 5,8
19.05.2019 19:00:00 20,0 17,2 0 0 - - N 1010,9 11 2,3
19.05.2019 18:00:00 24,4 15,0 11 6 - - - 1011,2 16 -
19.05.2019 17:00:00 23,9 15,6 16 9 - - ESE 1011,2 16 -
19.05.2019 16:00:00 23,9 15,6 18 10 - - ESE 1012,1 16 -
19.05.2019 15:00:00 23,9 15,0 16 9 - - SSE 1013,0 16 -
19.05.2019 14:00:00 21,1 13,3 13 7 - - SSE 1014,2 16 -
19.05.2019 13:00:00 18,9 12,2 16 9 - - SSE 1015,0 16 -
19.05.2019 12:00:00 16,7 11,1 15 8 - - SSE 1016,1 16 -
19.05.2019 11:00:00 15,0 10,6 15 8 - - SE 1016,5 16 -
19.05.2019 10:00:00 13,9 8,9 13 7 - - SSE 1017,1 16 -
19.05.2019 09:00:00 12,8 8,9 8 4 - - SE 1017,6 16 0,0
19.05.2019 08:00:00 11,1 8,9 5 3 - - SSW 1017,9 16 0,0
19.05.2019 07:00:00 11,1 8,3 0 0 - - N 1017,7 16 -
19.05.2019 06:00:00 9,4 7,8 0 0 - - N 1017,3 16 -
19.05.2019 05:00:00 10,6 7,8 0 0 - - N 1017,9 16 -
19.05.2019 04:00:00 11,1 7,8 0 0 - - N 1018,2 16 -
19.05.2019 03:00:00 10,6 7,8 0 0 - - N 1017,7 16 -
19.05.2019 02:00:00 10,6 7,2 0 0 - - N 1018,0 16 -

tt = temperature
td = dewpoint
ff = wind speed
fx = gusts
dd = wind direction
ppp = reduced air pressure
vv = visibility
rr = precipitation

Next stations